Effective Sunday, March 17, 2024, the National Weather Service National Data Buoy Center will discontinue its Dial-A-Buoy Interactive Voice Response system. For more information, see Service Change Notice 24-06 (PDF).

Station KBMG1 - 8679598 - Kings Bay MSF Pier, GA Image indicating link to RSS feed of recent meteorological observations for station KBMG1


Conditions at KBMG1 as of
(10:42 am EST)
1542 GMT on 03/01/2024:
     

Click on the graph icon in the table below to see a time series plot of the last five days of that observation.

5-day plot - Atmospheric Pressure Atmospheric Pressure (PRES):30.25 in
5-day plot - Air Temperature Air Temperature (ATMP): 64.8 °F
NOS Water Level Observation Network Water Level
Previous observations
TIME
(EST)
5-day plot - Wind Direction
WDIR
 
5-day plot - Wind Speed
WSPD
kts
5-day plot - Wind Gust
GST
kts
5-day plot - Wave Height
WVHT
ft
5-day plot - Dominant Wave Period
DPD
sec
5-day plot - Average Wave Period
APD
sec
5-day plot - Mean Wave Direction
MWD
 
5-day plot - Atmospheric Pressure
PRES
in
5-day plot - Pressure Tendency
PTDY
in
5-day plot - Air Temperature
ATMP
°F
5-day plot - Water Temperature
WTMP
°F
5-day plot - Dew Point
DEWP
°F
5-day plot - Salinity
SAL
psu
5-day plot - Visibility
VIS
nmi
5-day plot - Tide (above MLLW)
TIDE
ft
2024-03-01 10:36 am-------30.25- 64.2-----
2024-03-01 10:30 am-------30.25- 64.0-----
2024-03-01 10:24 am-------30.26- 63.7-----
2024-03-01 10:18 am-------30.27- 63.5-----
2024-03-01 10:12 am-------30.27- 63.3-----
2024-03-01 10:06 am-------30.27- 63.5-----
2024-03-01 10:00 am-------30.27+0.01------
2024-03-01 09:54 am-------30.27- 63.9-----
2024-03-01 09:48 am-------30.27- 63.9-----
2024-03-01 09:42 am-------30.27- 63.5-----
2024-03-01 09:36 am-------30.28- 63.3-----
2024-03-01 09:30 am-------30.28- 63.5-----
2024-03-01 09:24 am-------30.28- 63.3-----
2024-03-01 09:18 am-------30.28- 63.0-----
2024-03-01 09:12 am-------30.28- 63.0-----
2024-03-01 09:06 am-------30.28- 63.0-----
2024-03-01 09:00 am-------30.27+0.02------
2024-03-01 08:54 am-------30.27- 63.0-----
2024-03-01 08:48 am-------30.27- 63.0-----
2024-03-01 08:42 am-------30.27- 62.8-----
2024-03-01 08:36 am-------30.26- 62.8-----
2024-03-01 08:30 am-------30.26- 62.6-----
2024-03-01 08:24 am-------30.26- 62.8-----
2024-03-01 08:18 am-------30.26- 63.0-----
2024-03-01 08:12 am-------30.26- 62.4-----
2024-03-01 08:06 am-------30.26- 63.0-----
2024-03-01 08:00 am-------30.25-0.01 62.8-----
2024-03-01 07:54 am-------30.25- 62.4-----
2024-03-01 07:48 am-------30.25- 62.6-----
2024-03-01 07:42 am-------30.25- 61.7-----
2024-03-01 07:36 am-------30.26- 61.9-----
2024-03-01 07:30 am-------30.26- 61.7-----
2024-03-01 07:24 am-------30.26- 61.3-----
2024-03-01 07:18 am-------30.25- 61.2-----
2024-03-01 07:12 am-------30.26- 60.8-----
2024-03-01 07:06 am-------30.25-------
2024-03-01 07:00 am-------30.25-0.01 60.4-----
2024-03-01 06:54 am-------30.25- 60.6-----
2024-03-01 06:48 am-------30.25- 60.8-----
2024-03-01 06:42 am-------30.25- 60.8-----
2024-03-01 06:36 am-------30.24- 60.6-----
2024-03-01 06:30 am-------30.25- 60.6-----
2024-03-01 06:24 am-------30.25- 60.4-----
2024-03-01 06:18 am-------30.25- 60.1-----
2024-03-01 06:12 am-------30.25- 60.1-----
2024-03-01 06:06 am-------30.26- 60.1-----
2024-03-01 06:00 am-------30.25-0.04 60.1-----
2024-03-01 05:54 am-------30.25- 60.3-----
2024-03-01 05:48 am-------30.25- 60.1-----
2024-03-01 05:42 am-------30.26- 60.1-----
2024-03-01 05:36 am-------30.26- 60.1-----
2024-03-01 05:30 am-------30.26- 59.9-----
2024-03-01 05:24 am-------30.26- 59.9-----
2024-03-01 05:18 am-------30.26- 59.9-----
2024-03-01 05:12 am-------30.26- 59.9-----
2024-03-01 05:06 am-------30.27- 59.7-----
2024-03-01 05:00 am-------30.27-0.04 59.7-----
2024-03-01 04:54 am-------30.27- 59.7-----
2024-03-01 04:48 am-------30.27- 59.4-----
2024-03-01 04:42 am-------30.27- 59.4-----
2024-03-01 04:36 am-------30.28- 59.2-----
2024-03-01 04:30 am-------30.27- 59.2-----
2024-03-01 04:24 am-------30.27- 59.2-----
2024-03-01 04:18 am-------30.27- 59.0-----
2024-03-01 04:12 am-------30.27- 59.0-----
2024-03-01 04:06 am-------30.27- 59.0-----
2024-03-01 04:00 am-------30.27-0.06 59.0-----
2024-03-01 03:54 am-------30.27- 58.8-----
2024-03-01 03:48 am-------30.27- 58.8-----
2024-03-01 03:42 am-------30.27- 58.6-----
2024-03-01 03:30 am-------30.27- 58.5-----
2024-03-01 03:24 am-------30.28- 58.5-----
2024-03-01 03:18 am-------30.28- 58.6-----
2024-03-01 03:12 am-------30.29- 58.5-----
2024-03-01 03:00 am-------30.30-0.03 58.5-----
2024-03-01 02:54 am-------30.30- 58.5-----
2024-03-01 02:48 am-------30.30- 58.3-----
2024-03-01 02:42 am-------30.30- 58.1-----
2024-03-01 02:30 am-------30.30- 57.9-----
2024-03-01 02:24 am-------30.30- 57.9-----
2024-03-01 02:18 am-------30.30- 57.7-----
2024-03-01 02:12 am-------30.30- 57.9-----
2024-03-01 02:00 am-------30.31-0.03 57.9-----
2024-03-01 01:54 am-------30.31- 58.1-----
2024-03-01 01:48 am-------30.32- 57.9-----
2024-03-01 01:42 am-------30.32- 58.1-----
2024-03-01 01:36 am-------30.33- 58.3-----
2024-03-01 01:30 am-------30.34- 58.1-----
2024-03-01 01:24 am-------30.34- 58.3-----
2024-03-01 01:18 am-------30.33- 58.5-----
2024-03-01 01:12 am-------30.33- 58.3-----
2024-03-01 01:06 am-------30.33- 58.1-----
2024-03-01 01:00 am-------30.32-0.03 58.1-----
2024-03-01 12:54 am-------30.32- 58.1-----
2024-03-01 12:48 am-------30.32-------
2024-03-01 12:42 am-------30.32-------
2024-03-01 12:36 am-------30.32- 58.1-----
2024-03-01 12:30 am-------30.32- 58.1-----
2024-03-01 12:18 am-------30.32- 58.1-----
2024-03-01 12:12 am-------30.33- 57.9-----
2024-03-01 12:06 am-------30.32- 58.1-----
2024-03-01 12:00 am-------30.32-0.02 58.1-----
2024-02-29 11:54 pm-------30.32- 58.1-----
2024-02-29 11:48 pm-------30.33- 58.1-----
2024-02-29 11:42 pm-------30.33- 58.1-----
2024-02-29 11:36 pm-------30.33- 57.9-----
2024-02-29 11:30 pm-------30.33- 57.9-----
2024-02-29 11:24 pm-------30.34- 58.1-----
2024-02-29 11:18 pm-------30.34- 57.9-----
2024-02-29 11:12 pm-------30.34- 58.1-----
2024-02-29 11:06 pm-------30.34- 57.9-----
2024-02-29 11:00 pm-------30.33-0.02 57.7-----
2024-02-29 10:54 pm-------30.33- 57.9-----
2024-02-29 10:48 pm-------30.34- 57.9-----
2024-02-29 10:42 pm-------30.33- 57.7-----
2024-02-29 10:36 pm-------30.34- 57.9-----
2024-02-29 10:30 pm-------30.34- 57.9-----
2024-02-29 10:24 pm-------30.34- 57.7-----
2024-02-29 10:18 pm-------30.35- 57.7-----
2024-02-29 10:12 pm-------30.35- 57.7-----
2024-02-29 10:06 pm-------30.35- 57.7-----
2024-02-29 10:00 pm-------30.35-0.01 57.6-----
2024-02-29 09:54 pm-------30.35- 57.7-----
2024-02-29 09:48 pm-------30.35- 57.6-----
2024-02-29 09:42 pm-------30.35- 57.6-----
2024-02-29 09:36 pm-------30.36- 57.7-----
2024-02-29 09:30 pm-------30.36- 57.6-----
2024-02-29 09:24 pm-------30.35- 57.6-----
2024-02-29 09:18 pm-------30.35- 57.4-----
2024-02-29 09:12 pm-------30.35- 57.4-----
2024-02-29 09:06 pm-------30.35- 57.4-----
2024-02-29 09:00 pm-------30.34-0.02------
2024-02-29 08:54 pm-------30.35- 57.6-----
2024-02-29 08:48 pm-------30.35- 57.6-----
2024-02-29 08:42 pm-------30.35- 57.2-----
2024-02-29 08:36 pm-------30.35- 57.4-----
2024-02-29 08:30 pm-------30.35- 57.2-----
2024-02-29 08:24 pm-------30.35- 57.2-----
2024-02-29 08:18 pm-------30.35- 57.2-----
2024-02-29 08:12 pm-------30.35- 57.2-----
2024-02-29 08:06 pm-------30.35- 57.0-----
2024-02-29 08:00 pm-------30.35+0.00 57.2-----
2024-02-29 07:54 pm-------30.35- 57.0-----
2024-02-29 07:48 pm-------30.35- 57.2-----
2024-02-29 07:42 pm-------30.35- 56.8-----
2024-02-29 07:36 pm-------30.35- 56.7-----
2024-02-29 07:30 pm-------30.36- 56.8-----
2024-02-29 07:24 pm-------30.36- 56.8-----
2024-02-29 07:18 pm-------30.36- 56.8-----
2024-02-29 07:12 pm-------30.36- 56.8-----
2024-02-29 07:06 pm-------30.36- 56.8-----
2024-02-29 07:00 pm-------30.36+0.01 56.8-----
2024-02-29 06:54 pm-------30.36- 56.8-----
2024-02-29 06:48 pm-------30.37- 57.0-----
2024-02-29 06:42 pm-------30.37- 56.8-----
2024-02-29 06:36 pm-------30.36- 57.0-----
2024-02-29 05:42 pm-------30.36- 56.7-----
2024-02-29 05:36 pm-------30.36- 56.7-----
2024-02-29 05:30 pm-------30.36- 56.7-----
2024-02-29 05:24 pm-------30.36- 56.5-----
2024-02-29 05:18 pm-------30.36- 56.7-----
2024-02-29 05:12 pm-------30.36- 56.7-----
2024-02-29 05:06 pm-------30.36- 56.5-----
2024-02-29 05:00 pm-------30.36+0.00 56.3-----
2024-02-29 04:54 pm-------30.35- 56.3-----
2024-02-29 04:48 pm-------30.36- 56.5-----
2024-02-29 04:42 pm-------30.36- 56.3-----
2024-02-29 04:36 pm-------30.36- 56.3-----
2024-02-29 04:30 pm-------30.35- 56.3-----
2024-02-29 04:24 pm-------30.35- 56.1-----
2024-02-29 04:18 pm-------30.35- 56.1-----
2024-02-29 04:12 pm-------30.35- 56.1-----
2024-02-29 04:06 pm-------30.35- 56.1-----
2024-02-29 04:00 pm-------30.35-0.02 56.1-----
2024-02-29 03:54 pm-------30.35- 56.3-----
2024-02-29 03:48 pm-------30.36- 56.1-----
2024-02-29 03:42 pm-------30.36- 56.5-----
2024-02-29 03:36 pm-------30.36- 56.5-----
2024-02-29 03:30 pm-------30.36- 56.7-----
2024-02-29 03:24 pm-------30.35- 56.5-----
2024-02-29 03:18 pm-------30.36- 56.7-----
2024-02-29 03:12 pm-------30.35- 56.7-----
2024-02-29 03:06 pm-------30.35- 56.7-----
2024-02-29 03:00 pm-------30.35-0.04 56.7-----
2024-02-29 02:54 pm-------30.35- 56.7-----
2024-02-29 02:48 pm-------30.36- 56.7-----
2024-02-29 02:42 pm-------30.36- 56.7-----
2024-02-29 02:36 pm-------30.36- 56.7-----
2024-02-29 02:30 pm-------30.36- 57.0-----
2024-02-29 02:24 pm-------30.36- 56.8-----
2024-02-29 02:18 pm-------30.36- 56.7-----
2024-02-29 02:12 pm-------30.36- 56.5-----
2024-02-29 02:06 pm-------30.36- 56.7-----
2024-02-29 02:00 pm-------30.36-0.01------
2024-02-29 01:54 pm-------30.36- 57.0-----
2024-02-29 01:48 pm-------30.37- 56.7-----
2024-02-29 01:42 pm-------30.36- 57.0-----
2024-02-29 01:36 pm-------30.36- 57.0-----
2024-02-29 01:30 pm-------30.36- 57.2-----
2024-02-29 01:24 pm-------30.37- 56.8-----
2024-02-29 01:18 pm-------30.37- 57.0-----
2024-02-29 01:12 pm-------30.37- 57.2-----
2024-02-29 01:06 pm-------30.37- 57.4-----
2024-02-29 01:00 pm-------30.37+0.01 57.4-----
2024-02-29 12:54 pm-------30.37- 57.7-----
2024-02-29 12:48 pm-------30.37- 57.2-----
2024-02-29 12:42 pm-------30.37- 57.2-----
2024-02-29 12:36 pm-------30.37- 57.2-----
2024-02-29 12:30 pm-------30.37-------
2024-02-29 12:24 pm-------30.37- 57.7-----
2024-02-29 12:18 pm-------30.38- 57.6-----
2024-02-29 12:12 pm-------30.38- 57.6-----
2024-02-29 12:06 pm-------30.38- 57.7-----
2024-02-29 12:00 pm-------30.39+0.05 57.7-----
2024-02-29 11:54 am-------30.38- 57.6-----
2024-02-29 11:48 am-------30.39- 57.7-----
2024-02-29 11:42 am-------30.39- 57.6-----
2024-02-29 11:36 am-------30.39- 57.7-----
2024-02-29 11:30 am-------30.38- 57.7-----
2024-02-29 11:24 am-------30.39- 57.7-----
2024-02-29 11:18 am-------30.38- 57.9-----
2024-02-29 11:12 am-------30.37- 57.7-----
2024-02-29 11:06 am-------30.37- 57.9-----
2024-02-29 11:00 am-------30.37+0.07 57.6-----
2024-02-29 10:54 am-------30.37- 57.6-----